Time,TemperatureF,DewpointF,PressureIn,WindDirection,WindDirectionDegrees,WindSpeedMPH,WindSpeedGustMPH,Humidity,HourlyPrecipIn,Conditions,Clouds,dailyrainin,SoftwareType,DateUTC
2014-10-21 00:03:00,52.5,48.8,29.52,WNW,292,7.0,8.1,87,0.00,CLR,OVC,0.00,WeatherDisplay:10.37,2014-10-20 23:03:00,
2014-10-21 00:08:00,52.5,49.1,29.52,SW,225,4.9,16.2,88,0.00,CLR,OVC,0.00,WeatherDisplay:10.37,2014-10-20 23:08:00,
2014-10-21 00:13:00,52.9,49.4,29.52,South,180,0.2,6.9,88,0.00,CLR,OVC,0.00,WeatherDisplay:10.37,2014-10-20 23:13:00,
2014-10-21 00:18:00,52.9,49.4,29.51,SE,135,0.0,2.3,88,0.00,CLR,OVC,0.00,WeatherDisplay:10.37,2014-10-20 23:18:00,
2014-10-21 00:23:00,52.9,49.1,29.50,South,180,1.7,1.7,87,0.00,CLR,OVC,0.00,WeatherDisplay:10.37,2014-10-20 23:23:00,
2014-10-21 00:29:00,52.9,49.4,29.49,SSE,158,0.1,2.4,88,0.00,CLR,OVC,0.00,WeatherDisplay:10.37,2014-10-20 23:29:00,
2014-10-21 00:34:00,52.9,49.4,29.48,SE,135,0.4,1.1,88,0.00,CLR,OVC,0.00,WeatherDisplay:10.37,2014-10-20 23:34:00,
2014-10-21 00:39:00,53.2,49.5,29.48,East,90,2.8,5.8,87,0.00,CLR,OVC,0.00,WeatherDisplay:10.37,2014-10-20 23:39:00,
2014-10-21 00:44:00,53.2,49.5,29.47,SSW,202,0.3,2.3,87,0.00,CLR,OVC,0.00,WeatherDisplay:10.37,2014-10-20 23:44:00,
2014-10-21 00:49:00,53.2,49.5,29.47,SSE,158,0.0,0.0,87,0.00,CLR,OVC,0.00,WeatherDisplay:10.37,2014-10-20 23:49:00,
2014-10-21 00:54:00,53.2,49.8,29.47,SW,225,0.3,1.1,88,0.00,CLR,OVC,0.00,WeatherDisplay:10.37,2014-10-20 23:54:00,
2014-10-21 00:59:00,53.2,49.8,29.46,SE,135,0.5,1.1,88,0.00,CLR,OVC,0.00,WeatherDisplay:10.37,2014-10-20 23:59:00,
2014-10-21 01:04:00,52.9,49.4,29.45,SSE,158,0.5,2.3,88,0.00,CLR,OVC,0.00,WeatherDisplay:10.37,2014-10-21 00:04:00,
2014-10-21 01:09:00,52.9,49.4,29.45,WSW,248,0.9,2.3,88,0.00,CLR,OVC,0.00,WeatherDisplay:10.37,2014-10-21 00:09:00,
2014-10-21 01:14:00,52.9,49.4,29.45,SE,135,0.0,2.3,88,0.00,CLR,OVC,0.00,WeatherDisplay:10.37,2014-10-21 00:14:00,
2014-10-21 01:19:00,52.9,49.7,29.45,SSE,158,0.7,2.3,89,0.00,CLR,OVC,0.00,WeatherDisplay:10.37,2014-10-21 00:19:00,
2014-10-21 01:24:00,52.9,49.7,29.44,SW,225,1.1,3.1,89,0.00,CLR,OVC,0.00,WeatherDisplay:10.37,2014-10-21 00:24:00,
2014-10-21 01:29:00,52.9,49.7,29.43,SSW,202,0.1,3.1,89,0.00,CLR,OVC,0.00,WeatherDisplay:10.37,2014-10-21 00:29:00,
2014-10-21 01:34:00,52.9,49.7,29.43,SE,135,0.0,1.1,89,0.00,CLR,OVC,0.00,WeatherDisplay:10.37,2014-10-21 00:34:00,
2014-10-21 01:40:00,52.9,49.7,29.42,SE,135,0.0,0.0,89,0.00,CLR,OVC,0.00,WeatherDisplay:10.37,2014-10-21 00:40:00,
2014-10-21 01:45:00,52.9,49.7,29.42,SSE,150,0.0,0.0,89,0.00,CLR,OVC,0.00,WeatherDisplay:10.37,2014-10-21 00:45:00,
2014-10-21 01:50:00,52.7,49.5,29.41,SE,135,0.0,0.0,89,0.00,CLR,OVC,0.00,WeatherDisplay:10.37,2014-10-21 00:50:00,
2014-10-21 01:55:00,52.9,49.7,29.41,SSE,150,0.0,0.0,89,0.00,CLR,OVC,0.00,WeatherDisplay:10.37,2014-10-21 00:55:00,
2014-10-21 02:00:00,52.9,49.7,29.41,SW,225,0.7,1.1,89,0.00,CLR,OVC,0.00,WeatherDisplay:10.37,2014-10-21 01:00:00,
2014-10-21 02:04:00,53.0,49.9,29.40,SSW,202,1.0,8.0,89,0.00,CLR,OVC,0.00,WeatherDisplay:10.37,2014-10-21 01:04:00,
2014-10-21 02:10:00,53.2,50.1,29.39,WSW,248,0.0,0.0,89,0.00,CLR,OVC,0.00,WeatherDisplay:10.37,2014-10-21 01:10:00,
2014-10-21 02:14:00,53.2,50.1,29.38,SSW,196,0.0,3.0,89,0.00,CLR,OVC,0.00,WeatherDisplay:10.37,2014-10-21 01:14:00,
2014-10-21 02:20:00,53.4,50.3,29.37,SSW,202,0.0,2.3,89,0.00,CLR,OVC,0.00,WeatherDisplay:10.37,2014-10-21 01:20:00,
2014-10-21 02:25:00,53.4,50.3,29.37,South,179,1.0,7.0,89,0.00,CLR,OVC,0.00,WeatherDisplay:10.37,2014-10-21 01:25:00,
2014-10-21 02:30:00,53.4,50.0,29.36,SSW,202,3.4,3.5,88,0.00,CLR,OVC,0.00,WeatherDisplay:10.37,2014-10-21 01:30:00,
2014-10-21 02:34:00,53.8,50.3,29.36,SW,214,6.0,14.0,88,0.00,CLR,OVC,0.00,WeatherDisplay:10.37,2014-10-21 01:34:00,
2014-10-21 02:40:00,53.8,50.0,29.35,West,270,2.7,4.6,87,0.00,CLR,OVC,0.00,WeatherDisplay:10.37,2014-10-21 01:40:00,
2014-10-21 02:45:00,53.8,50.1,29.35,SSW,198,0.0,8.0,87,0.00,CLR,OVC,0.00,WeatherDisplay:10.37,2014-10-21 01:45:00,
2014-10-21 02:50:00,54.0,50.2,29.34,WSW,248,0.5,1.1,87,0.00,CLR,OVC,0.00,WeatherDisplay:10.37,2014-10-21 01:50:00,
2014-10-21 02:55:00,53.8,50.0,29.34,North,0,3.3,5.8,87,0.00,CLR,OVC,0.00,WeatherDisplay:10.37,2014-10-21 01:55:00,
2014-10-21 03:00:00,53.8,50.0,29.33,SE,135,0.0,0.0,87,0.00,CLR,OVC,0.00,WeatherDisplay:10.37,2014-10-21 02:00:00,
2014-10-21 03:05:00,53.8,50.0,29.33,SW,225,6.2,11.5,87,0.00,CLR,OVC,0.00,WeatherDisplay:10.37,2014-10-21 02:05:00,
2014-10-21 03:10:00,53.8,50.0,29.32,ESE,112,5.6,16.1,87,0.00,CLR,OVC,0.00,WeatherDisplay:10.37,2014-10-21 02:10:00,
2014-10-21 03:15:00,53.4,50.0,29.31,ESE,112,2.1,5.8,88,0.00,CLR,OVC,0.00,WeatherDisplay:10.37,2014-10-21 02:15:00,
2014-10-21 03:20:00,53.2,50.1,29.31,WSW,248,3.9,5.8,89,0.00,CLR,OVC,0.00,WeatherDisplay:10.37,2014-10-21 02:20:00,
2014-10-21 03:25:00,52.9,49.7,29.30,NW,315,10.8,17.3,89,0.00,CLR,OVC,0.00,WeatherDisplay:10.37,2014-10-21 02:25:00,
2014-10-21 03:30:00,52.7,49.8,29.30,WSW,248,3.1,5.8,90,0.00,CLR,OVC,0.00,WeatherDisplay:10.37,2014-10-21 02:30:00,
2014-10-21 03:35:00,52.5,50.0,29.28,WSW,248,3.7,5.8,91,0.02,RA,OVC,0.02,WeatherDisplay:10.37,2014-10-21 02:35:00,
2014-10-21 03:40:00,52.3,49.8,29.28,SW,225,3.9,9.2,91,0.02,RA,OVC,0.02,WeatherDisplay:10.37,2014-10-21 02:40:00,
2014-10-21 03:45:00,52.3,49.8,29.27,SSW,202,1.8,3.5,91,0.02,CLR,OVC,0.02,WeatherDisplay:10.37,2014-10-21 02:45:00,
2014-10-21 03:50:00,52.2,49.9,29.27,South,180,2.7,8.1,92,0.02,CLR,OVC,0.02,WeatherDisplay:10.37,2014-10-21 02:50:00,
2014-10-21 03:56:00,52.2,49.9,29.26,West,270,3.6,10.4,92,0.02,CLR,OVC,0.02,WeatherDisplay:10.37,2014-10-21 02:56:00,
2014-10-21 04:01:00,52.2,49.9,29.25,SSE,158,3.3,0.0,92,0.02,CLR,OVC,0.02,WeatherDisplay:10.37,2014-10-21 03:01:00,
2014-10-21 04:06:00,52.3,50.1,29.25,West,270,4.3,6.9,92,0.02,CLR,OVC,0.02,WeatherDisplay:10.37,2014-10-21 03:06:00,
2014-10-21 04:11:00,52.3,50.1,29.24,South,180,0.0,0.0,92,0.02,CLR,OVC,0.02,WeatherDisplay:10.37,2014-10-21 03:11:00,
2014-10-21 04:16:00,52.3,50.1,29.24,SSW,202,1.8,6.9,92,0.02,CLR,OVC,0.02,WeatherDisplay:10.37,2014-10-21 03:16:00,
2014-10-21 04:21:00,52.3,50.1,29.22,ESE,112,2.8,9.2,92,0.02,CLR,OVC,0.02,WeatherDisplay:10.37,2014-10-21 03:21:00,
2014-10-21 04:26:00,52.3,50.1,29.21,West,270,5.2,11.5,92,0.02,CLR,OVC,0.02,WeatherDisplay:10.37,2014-10-21 03:26:00,
2014-10-21 04:31:00,52.5,50.3,29.21,SW,225,6.1,8.1,92,0.02,CLR,OVC,0.02,WeatherDisplay:10.37,2014-10-21 03:31:00,
2014-10-21 04:36:00,52.5,50.3,29.20,SW,225,4.8,4.8,92,0.00,CLR,OVC,0.02,WeatherDisplay:10.37,2014-10-21 03:36:00,
2014-10-21 04:41:00,52.7,50.4,29.20,WSW,248,6.0,9.2,92,0.00,CLR,OVC,0.02,WeatherDisplay:10.37,2014-10-21 03:41:00,
2014-10-21 04:46:00,52.7,50.1,29.19,WSW,248,8.0,13.5,91,0.00,CLR,OVC,0.02,WeatherDisplay:10.37,2014-10-21 03:46:00,
2014-10-21 04:51:00,52.9,50.6,29.18,SW,225,2.8,4.9,92,0.00,CLR,OVC,0.02,WeatherDisplay:10.37,2014-10-21 03:51:00,
2014-10-21 04:56:00,52.9,50.6,29.17,SW,225,3.0,5.8,92,0.00,CLR,OVC,0.02,WeatherDisplay:10.37,2014-10-21 03:56:00,
2014-10-21 05:01:00,52.9,50.6,29.17,WSW,248,8.2,10.4,92,0.00,CLR,OVC,0.02,WeatherDisplay:10.37,2014-10-21 04:01:00,
2014-10-21 05:06:00,52.9,50.6,29.17,WSW,248,8.2,10.4,92,0.00,CLR,OVC,0.02,WeatherDisplay:10.37,2014-10-21 04:06:00,
2014-10-21 05:12:00,52.7,50.4,29.16,SW,225,5.0,5.8,92,0.00,CLR,OVC,0.02,WeatherDisplay:10.37,2014-10-21 04:12:00,
2014-10-21 05:17:00,52.5,50.6,29.16,SW,225,5.6,6.9,93,0.00,CLR,OVC,0.02,WeatherDisplay:10.37,2014-10-21 04:17:00,
2014-10-21 05:22:00,52.5,50.6,29.16,WSW,248,2.7,5.8,93,0.00,CLR,OVC,0.02,WeatherDisplay:10.37,2014-10-21 04:22:00,
2014-10-21 05:27:00,52.5,50.6,29.16,SW,225,6.3,19.6,93,0.00,CLR,OVC,0.02,WeatherDisplay:10.37,2014-10-21 04:27:00,
2014-10-21 05:32:00,52.5,50.6,29.15,SSE,158,6.1,10.4,93,0.00,CLR,OVC,0.02,WeatherDisplay:10.37,2014-10-21 04:32:00,
2014-10-21 05:37:00,52.5,50.8,29.15,SSE,158,5.5,8.1,94,0.02,RA,OVC,0.04,WeatherDisplay:10.37,2014-10-21 04:37:00,
2014-10-21 05:42:00,52.5,50.8,29.14,WNW,292,3.2,12.7,94,0.02,RA,OVC,0.04,WeatherDisplay:10.37,2014-10-21 04:42:00,
2014-10-21 05:47:00,52.5,50.8,29.13,South,180,2.9,4.6,94,0.02,CLR,OVC,0.04,WeatherDisplay:10.37,2014-10-21 04:47:00,
2014-10-21 05:52:00,52.5,50.8,29.13,South,180,3.5,3.5,94,0.02,CLR,OVC,0.04,WeatherDisplay:10.37,2014-10-21 04:52:00,
2014-10-21 05:57:00,52.5,50.8,29.13,West,270,12.5,12.5,94,0.02,CLR,OVC,0.04,WeatherDisplay:10.37,2014-10-21 04:57:00,
2014-10-21 06:02:00,52.7,51.0,29.13,WSW,248,2.1,2.3,94,0.02,CLR,OVC,0.04,WeatherDisplay:10.37,2014-10-21 05:02:00,
2014-10-21 06:07:00,52.7,51.0,29.12,WSW,248,6.3,6.3,94,0.02,CLR,OVC,0.04,WeatherDisplay:10.37,2014-10-21 05:07:00,
2014-10-21 06:12:00,52.9,51.2,29.12,South,180,1.0,10.4,94,0.02,CLR,OVC,0.04,WeatherDisplay:10.37,2014-10-21 05:12:00,
2014-10-21 06:17:00,52.9,51.2,29.13,WSW,248,4.6,10.4,94,0.02,CLR,OVC,0.04,WeatherDisplay:10.37,2014-10-21 05:17:00,
2014-10-21 06:22:00,53.1,51.4,29.13,WSW,248,1.0,5.8,94,0.02,CLR,OVC,0.04,WeatherDisplay:10.37,2014-10-21 05:22:00,
2014-10-21 06:28:00,53.2,51.6,29.13,SSW,202,5.3,10.4,94,0.02,CLR,OVC,0.04,WeatherDisplay:10.37,2014-10-21 05:28:00,
2014-10-21 06:33:00,53.2,51.6,29.14,East,90,0.6,4.3,94,0.02,CLR,OVC,0.04,WeatherDisplay:10.37,2014-10-21 05:33:00,
2014-10-21 06:38:00,53.4,51.7,29.15,NW,315,6.9,9.2,94,0.00,CLR,OVC,0.04,WeatherDisplay:10.37,2014-10-21 05:38:00,
2014-10-21 06:43:00,53.2,51.6,29.16,North,0,6.9,6.9,94,0.00,CLR,OVC,0.04,WeatherDisplay:10.37,2014-10-21 05:43:00,
2014-10-21 06:48:00,52.9,50.9,29.16,SSE,158,2.7,4.9,93,0.00,CLR,OVC,0.04,WeatherDisplay:10.37,2014-10-21 05:48:00,
2014-10-21 06:53:00,52.3,49.8,29.16,West,270,7.2,8.1,91,0.02,RA,OVC,0.06,WeatherDisplay:10.37,2014-10-21 05:53:00,
2014-10-21 06:58:00,51.8,49.0,29.16,ENE,68,10.7,10.7,90,0.02,RA,OVC,0.06,WeatherDisplay:10.37,2014-10-21 05:58:00,
2014-10-21 07:03:00,51.6,48.2,29.17,NNE,22,7.0,7.0,88,0.02,CLR,OVC,0.06,WeatherDisplay:10.37,2014-10-21 06:03:00,
2014-10-21 07:08:00,51.4,47.7,29.17,North,0,4.6,5.8,87,0.02,CLR,OVC,0.06,WeatherDisplay:10.37,2014-10-21 06:08:00,
2014-10-21 07:13:00,51.3,47.2,29.18,West,270,5.9,8.1,86,0.02,CLR,OVC,0.06,WeatherDisplay:10.37,2014-10-21 06:13:00,
2014-10-21 07:18:00,51.1,46.7,29.18,WNW,292,7.2,13.8,85,0.02,CLR,OVC,0.06,WeatherDisplay:10.37,2014-10-21 06:18:00,
2014-10-21 07:23:00,50.7,46.4,29.18,SW,225,3.5,5.2,85,0.02,CLR,OVC,0.06,WeatherDisplay:10.37,2014-10-21 06:23:00,
2014-10-21 07:28:00,50.7,46.1,29.19,SW,225,4.5,9.2,84,0.02,CLR,OVC,0.06,WeatherDisplay:10.37,2014-10-21 06:28:00,
2014-10-21 07:33:00,50.5,45.9,29.20,SSE,158,4.4,4.4,84,0.02,CLR,OVC,0.06,WeatherDisplay:10.37,2014-10-21 06:33:00,
2014-10-21 07:39:00,50.5,45.6,29.20,WNW,292,3.3,7.0,83,0.02,CLR,OVC,0.06,WeatherDisplay:10.37,2014-10-21 06:39:00,
2014-10-21 07:44:00,50.4,45.4,29.21,North,0,4.1,6.9,83,0.02,CLR,OVC,0.06,WeatherDisplay:10.37,2014-10-21 06:44:00,
2014-10-21 07:49:00,50.4,45.4,29.22,North,0,1.7,2.3,83,0.02,CLR,OVC,0.06,WeatherDisplay:10.37,2014-10-21 06:49:00,
2014-10-21 07:54:00,50.2,45.2,29.22,SE,135,6.8,8.1,83,0.00,CLR,OVC,0.06,WeatherDisplay:10.37,2014-10-21 06:54:00,
2014-10-21 07:59:00,50.2,45.2,29.22,WNW,292,4.1,10.4,83,0.00,CLR,OVC,0.06,WeatherDisplay:10.37,2014-10-21 06:59:00,
2014-10-21 08:04:00,49.8,44.5,29.23,SE,135,5.0,8.1,82,0.00,CLR,OVC,0.06,WeatherDisplay:10.37,2014-10-21 07:04:00,
2014-10-21 08:09:00,49.8,44.5,29.23,SW,225,2.4,4.6,82,0.00,CLR,OVC,0.06,WeatherDisplay:10.37,2014-10-21 07:09:00,
2014-10-21 08:14:00,49.3,44.0,29.24,NW,315,3.0,4.6,82,0.00,CLR,OVC,0.06,WeatherDisplay:10.37,2014-10-21 07:14:00,
2014-10-21 08:19:00,49.3,44.0,29.23,NNE,22,6.8,8.1,82,0.00,CLR,OVC,0.06,WeatherDisplay:10.37,2014-10-21 07:19:00,
2014-10-21 08:24:00,48.9,43.3,29.24,ESE,112,5.0,9.2,81,0.00,CLR,OVC,0.06,WeatherDisplay:10.37,2014-10-21 07:24:00,
2014-10-21 08:29:00,48.9,43.3,29.24,NW,315,4.5,4.6,81,0.00,CLR,OVC,0.06,WeatherDisplay:10.37,2014-10-21 07:29:00,
2014-10-21 08:34:00,48.7,43.2,29.25,NNW,338,3.8,6.9,81,0.00,CLR,OVC,0.06,WeatherDisplay:10.37,2014-10-21 07:34:00,
2014-10-21 08:39:00,48.7,43.2,29.26,NNE,22,4.2,11.5,81,0.00,CLR,OVC,0.06,WeatherDisplay:10.37,2014-10-21 07:39:00,
2014-10-21 08:44:00,48.7,43.2,29.25,ESE,112,4.0,10.4,81,0.00,CLR,OVC,0.06,WeatherDisplay:10.37,2014-10-21 07:44:00,
2014-10-21 08:49:00,48.7,42.8,29.25,SSE,158,4.6,6.9,80,0.00,CLR,OVC,0.06,WeatherDisplay:10.37,2014-10-21 07:49:00,
2014-10-21 08:54:00,48.8,42.9,29.25,SW,231,1.0,4.0,80,0.00,CLR,OVC,0.06,WeatherDisplay:10.37,2014-10-21 07:54:00,
2014-10-21 08:59:00,48.7,42.8,29.26,WSW,257,5.0,12.0,80,0.00,CLR,OVC,0.06,WeatherDisplay:10.37,2014-10-21 07:59:00,
2014-10-21 09:05:00,48.7,42.8,29.26,East,90,4.2,5.8,80,0.00,CLR,OVC,0.06,WeatherDisplay:10.37,2014-10-21 08:05:00,
2014-10-21 09:10:00,48.7,42.8,29.27,South,179,5.0,9.0,80,0.00,CLR,OVC,0.06,WeatherDisplay:10.37,2014-10-21 08:10:00,
2014-10-21 09:15:00,48.7,42.5,29.27,WSW,248,6.6,6.9,79,0.00,CLR,OVC,0.06,WeatherDisplay:10.37,2014-10-21 08:15:00,
2014-10-21 09:20:00,48.9,42.4,29.27,WNW,292,3.8,9.8,78,0.00,CLR,OVC,0.06,WeatherDisplay:10.37,2014-10-21 08:20:00,
2014-10-21 09:25:00,48.9,42.4,29.27,North,0,6.3,6.9,78,0.00,CLR,OVC,0.06,WeatherDisplay:10.37,2014-10-21 08:25:00,
2014-10-21 09:30:00,48.7,42.2,29.27,SSE,158,4.0,5.8,78,0.00,CLR,OVC,0.06,WeatherDisplay:10.37,2014-10-21 08:30:00,
2014-10-21 09:35:00,48.7,42.2,29.27,NW,315,1.3,8.0,78,0.00,CLR,OVC,0.06,WeatherDisplay:10.37,2014-10-21 08:35:00,
2014-10-21 09:40:00,48.9,42.0,29.28,WNW,292,5.0,5.8,77,0.00,CLR,OVC,0.06,WeatherDisplay:10.37,2014-10-21 08:40:00,
2014-10-21 09:45:00,48.9,42.0,29.28,North,0,6.8,10.4,77,0.00,CLR,OVC,0.06,WeatherDisplay:10.37,2014-10-21 08:45:00,
2014-10-21 09:50:00,49.1,42.2,29.29,West,270,2.9,6.9,77,0.00,CLR,OVC,0.06,WeatherDisplay:10.37,2014-10-21 08:50:00,
2014-10-21 09:55:00,49.1,41.9,29.29,West,270,5.9,12.7,76,0.00,CLR,OVC,0.06,WeatherDisplay:10.37,2014-10-21 08:55:00,
2014-10-21 10:00:00,49.1,41.9,29.29,North,0,7.2,7.2,76,0.00,CLR,OVC,0.06,WeatherDisplay:10.37,2014-10-21 09:00:00,
2014-10-21 10:05:00,49.1,41.9,29.29,WSW,248,4.9,6.9,76,0.00,CLR,OVC,0.06,WeatherDisplay:10.37,2014-10-21 09:05:00,
2014-10-21 10:10:00,49.1,41.9,29.30,WSW,248,6.5,6.9,76,0.00,CLR,OVC,0.06,WeatherDisplay:10.37,2014-10-21 09:10:00,
2014-10-21 10:15:00,49.1,41.5,29.31,WSW,248,10.8,16.1,75,0.00,CLR,OVC,0.06,WeatherDisplay:10.37,2014-10-21 09:15:00,
2014-10-21 10:21:00,49.1,41.2,29.31,SW,225,6.5,8.1,74,0.00,CLR,OVC,0.06,WeatherDisplay:10.37,2014-10-21 09:21:00,
2014-10-21 10:26:00,49.3,41.7,29.32,WSW,248,6.5,8.1,75,0.00,CLR,OVC,0.06,WeatherDisplay:10.37,2014-10-21 09:26:00,
2014-10-21 10:31:00,49.5,41.5,29.32,WSW,248,8.1,9.2,74,0.00,CLR,OVC,0.06,WeatherDisplay:10.37,2014-10-21 09:31:00,
2014-10-21 10:36:00,49.6,41.7,29.32,WSW,248,5.4,6.9,74,0.00,CLR,OVC,0.06,WeatherDisplay:10.37,2014-10-21 09:36:00,
2014-10-21 10:41:00,49.6,41.7,29.32,SSW,202,2.0,3.5,74,0.00,CLR,OVC,0.06,WeatherDisplay:10.37,2014-10-21 09:41:00,
2014-10-21 10:46:00,49.6,41.7,29.32,NNE,22,4.3,6.9,74,0.00,CLR,OVC,0.06,WeatherDisplay:10.37,2014-10-21 09:46:00,
2014-10-21 10:51:00,49.8,41.9,29.32,WNW,292,4.9,4.9,74,0.00,CLR,OVC,0.06,WeatherDisplay:10.37,2014-10-21 09:51:00,
2014-10-21 10:56:00,49.8,41.5,29.32,WNW,292,7.2,8.1,73,0.00,CLR,OVC,0.06,WeatherDisplay:10.37,2014-10-21 09:56:00,
2014-10-21 11:01:00,49.8,41.2,29.32,NW,315,7.5,8.1,72,0.00,CLR,OVC,0.06,WeatherDisplay:10.37,2014-10-21 10:01:00,
2014-10-21 11:06:00,49.8,41.2,29.32,West,270,6.6,6.9,72,0.00,CLR,OVC,0.06,WeatherDisplay:10.37,2014-10-21 10:06:00,
2014-10-21 11:11:00,49.8,41.2,29.33,NW,315,4.7,13.8,72,0.00,CLR,OVC,0.06,WeatherDisplay:10.37,2014-10-21 10:11:00,
2014-10-21 11:16:00,50.2,41.1,29.33,ESE,112,8.1,10.4,71,0.00,CLR,OVC,0.06,WeatherDisplay:10.37,2014-10-21 10:16:00,
2014-10-21 11:21:00,49.8,40.8,29.33,SSE,158,5.5,13.8,71,0.00,CLR,OVC,0.06,WeatherDisplay:10.37,2014-10-21 10:21:00,
2014-10-21 11:26:00,50.2,41.1,29.33,SSW,202,12.2,19.6,71,0.00,CLR,OVC,0.06,WeatherDisplay:10.37,2014-10-21 10:26:00,
2014-10-21 11:31:00,50.4,41.3,29.33,SSW,202,6.1,9.2,71,0.00,CLR,OVC,0.06,WeatherDisplay:10.37,2014-10-21 10:31:00,
2014-10-21 11:37:00,50.5,41.1,29.33,WNW,292,8.5,14.1,70,0.00,CLR,OVC,0.06,WeatherDisplay:10.37,2014-10-21 10:37:00,
2014-10-21 11:42:00,50.5,40.7,29.34,ESE,112,7.6,9.2,69,0.00,CLR,OVC,0.06,WeatherDisplay:10.37,2014-10-21 10:42:00,
2014-10-21 11:47:00,50.5,40.7,29.34,SE,135,9.1,13.8,69,0.00,CLR,OVC,0.06,WeatherDisplay:10.37,2014-10-21 10:47:00,
2014-10-21 11:52:00,50.4,40.6,29.35,East,90,5.6,6.9,69,0.00,CLR,OVC,0.06,WeatherDisplay:10.37,2014-10-21 10:52:00,
2014-10-21 11:57:00,50.2,40.4,29.35,SSW,202,9.7,11.5,69,0.00,CLR,OVC,0.06,WeatherDisplay:10.37,2014-10-21 10:57:00,
2014-10-21 12:02:00,50.2,40.4,29.36,NW,315,3.3,4.6,69,0.00,CLR,OVC,0.06,WeatherDisplay:10.37,2014-10-21 11:02:00,
2014-10-21 12:07:00,50.2,40.8,29.37,ENE,68,3.7,4.9,70,0.00,CLR,OVC,0.06,WeatherDisplay:10.37,2014-10-21 11:07:00,
2014-10-21 12:12:00,50.2,40.8,29.37,SSE,158,4.7,6.9,70,0.00,CLR,OVC,0.06,WeatherDisplay:10.37,2014-10-21 11:12:00,
2014-10-21 12:17:00,50.4,40.9,29.37,NNW,338,8.0,8.0,70,0.00,CLR,OVC,0.06,WeatherDisplay:10.37,2014-10-21 11:17:00,
2014-10-21 12:22:00,50.2,40.8,29.38,NW,315,6.4,12.7,70,0.00,CLR,OVC,0.06,WeatherDisplay:10.37,2014-10-21 11:22:00,
2014-10-21 12:27:00,50.2,40.4,29.39,NNE,22,6.5,9.2,69,0.00,CLR,OVC,0.06,WeatherDisplay:10.37,2014-10-21 11:27:00,
2014-10-21 12:32:00,50.2,40.8,29.39,WSW,248,5.1,5.8,70,0.00,CLR,OVC,0.06,WeatherDisplay:10.37,2014-10-21 11:32:00,
2014-10-21 12:37:00,50.4,40.9,29.39,NW,315,5.4,5.8,70,0.00,CLR,OVC,0.06,WeatherDisplay:10.37,2014-10-21 11:37:00,
2014-10-21 12:42:00,50.5,40.7,29.40,WSW,248,9.7,9.7,69,0.00,CLR,OVC,0.06,WeatherDisplay:10.37,2014-10-21 11:42:00,
2014-10-21 12:48:00,50.4,40.6,29.40,ESE,112,7.9,11.5,69,0.00,CLR,OVC,0.06,WeatherDisplay:10.37,2014-10-21 11:48:00,
2014-10-21 12:53:00,50.5,40.7,29.41,SSE,158,6.0,6.9,69,0.00,CLR,OVC,0.06,WeatherDisplay:10.37,2014-10-21 11:53:00,
2014-10-21 12:58:00,50.5,40.7,29.42,ENE,68,6.3,6.9,69,0.00,CLR,OVC,0.06,WeatherDisplay:10.37,2014-10-21 11:58:00,
2014-10-21 13:03:00,50.7,40.9,29.41,NNW,338,3.4,5.2,69,0.00,CLR,OVC,0.06,WeatherDisplay:10.37,2014-10-21 12:03:00,
2014-10-21 13:08:00,50.7,40.2,29.42,NNW,338,7.2,7.2,67,0.00,CLR,OVC,0.06,WeatherDisplay:10.37,2014-10-21 12:08:00,
2014-10-21 13:13:00,51.1,40.5,29.42,SSE,158,7.2,8.1,67,0.00,CLR,OVC,0.06,WeatherDisplay:10.37,2014-10-21 12:13:00,
2014-10-21 13:18:00,51.6,41.0,29.42,NW,315,6.8,12.7,67,0.00,CLR,OVC,0.06,WeatherDisplay:10.37,2014-10-21 12:18:00,
2014-10-21 13:23:00,52.0,41.4,29.43,WSW,248,6.0,6.9,67,0.00,CLR,OVC,0.06,WeatherDisplay:10.37,2014-10-21 12:23:00,
2014-10-21 13:28:00,51.8,40.8,29.43,NNE,22,3.3,11.5,66,0.00,CLR,OVC,0.06,WeatherDisplay:10.37,2014-10-21 12:28:00,
2014-10-21 13:33:00,52.0,40.6,29.44,SW,225,4.9,15.0,65,0.00,CLR,OVC,0.06,WeatherDisplay:10.37,2014-10-21 12:33:00,
2014-10-21 13:38:00,51.6,40.2,29.44,WSW,248,6.0,6.9,65,0.00,CLR,OVC,0.06,WeatherDisplay:10.37,2014-10-21 12:38:00,
2014-10-21 13:43:00,51.6,40.2,29.44,NNE,22,4.2,4.6,65,0.00,CLR,OVC,0.06,WeatherDisplay:10.37,2014-10-21 12:43:00,
2014-10-21 13:48:00,51.6,39.8,29.45,SSE,158,6.9,9.2,64,0.00,CLR,OVC,0.06,WeatherDisplay:10.37,2014-10-21 12:48:00,
2014-10-21 13:54:00,51.6,40.2,29.45,ENE,68,5.2,5.8,65,0.00,CLR,OVC,0.06,WeatherDisplay:10.37,2014-10-21 12:54:00,
2014-10-21 13:59:00,51.6,40.2,29.46,NNE,22,5.4,8.1,65,0.00,CLR,OVC,0.06,WeatherDisplay:10.37,2014-10-21 12:59:00,
2014-10-21 14:04:00,51.6,40.2,29.46,NNW,338,2.9,3.7,65,0.00,CLR,OVC,0.06,WeatherDisplay:10.37,2014-10-21 13:04:00,
2014-10-21 14:09:00,51.4,40.5,29.47,NW,315,5.1,10.4,66,0.00,CLR,OVC,0.06,WeatherDisplay:10.37,2014-10-21 13:09:00,
2014-10-21 14:14:00,50.9,39.9,29.47,North,0,5.5,8.1,66,0.00,CLR,OVC,0.06,WeatherDisplay:10.37,2014-10-21 13:14:00,
2014-10-21 14:19:00,50.5,40.0,29.47,SW,225,7.9,11.5,67,0.00,CLR,OVC,0.06,WeatherDisplay:10.37,2014-10-21 13:19:00,
2014-10-21 14:24:00,50.5,40.4,29.47,WNW,292,6.7,8.1,68,0.00,CLR,OVC,0.06,WeatherDisplay:10.37,2014-10-21 13:24:00,
2014-10-21 14:29:00,50.5,39.6,29.48,SSE,158,7.7,7.7,66,0.00,CLR,OVC,0.06,WeatherDisplay:10.37,2014-10-21 13:29:00,
2014-10-21 14:34:00,50.7,39.4,29.49,WSW,248,6.6,9.2,65,0.00,CLR,OVC,0.06,WeatherDisplay:10.37,2014-10-21 13:34:00,
2014-10-21 14:39:00,50.5,38.8,29.49,SSE,158,5.0,5.8,64,0.00,CLR,OVC,0.06,WeatherDisplay:10.37,2014-10-21 13:39:00,
2014-10-21 14:44:00,50.4,38.2,29.49,NNW,338,4.0,6.9,63,0.00,CLR,OVC,0.06,WeatherDisplay:10.37,2014-10-21 13:44:00,
2014-10-21 14:49:00,50.5,38.4,29.50,NNW,338,8.3,8.3,63,0.00,CLR,OVC,0.06,WeatherDisplay:10.37,2014-10-21 13:49:00,
2014-10-21 14:54:00,50.5,38.4,29.51,NNW,337,10.0,13.0,63,0.00,CLR,OVC,0.06,WeatherDisplay:10.37,2014-10-21 13:54:00,
2014-10-21 14:59:00,50.5,38.0,29.51,NE,46,5.0,9.0,62,0.00,CLR,OVC,0.06,WeatherDisplay:10.37,2014-10-21 13:59:00,
2014-10-21 15:04:00,50.6,38.1,29.51,ENE,62,6.0,9.0,62,0.00,CLR,OVC,0.06,WeatherDisplay:10.37,2014-10-21 14:04:00,
2014-10-21 15:09:00,50.7,38.2,29.52,NNE,32,5.0,8.0,62,0.00,CLR,OVC,0.06,WeatherDisplay:10.37,2014-10-21 14:09:00,
2014-10-21 15:14:00,50.8,37.9,29.53,NNE,13,8.0,12.0,61,0.00,CLR,OVC,0.06,WeatherDisplay:10.37,2014-10-21 14:14:00,
2014-10-21 15:19:00,50.8,37.9,29.53,NNE,21,5.0,6.0,61,0.00,CLR,OVC,0.06,WeatherDisplay:10.37,2014-10-21 14:19:00,